QPF
0.00 0.00 0.00 0.00 0.00 0.00 0.00 0.00 0.00 0.00 0.00 0.00 0.00 0.00 0.00 0.00 0.00 0.00 0.00 0.00 0.00 0.00 0.00 0.00 0.00 0.00 0.00 0.00 0.00 0.00 0.00 0.00 0.00 0.00 0.00 0.00 0.00 0.00 0.00 0.00 0.00 0.00 0.00
0.00 0.00 0.00 0.00 0.00 0.00 0.00 0.00 0.00 0.00 0.00 0.00 0.00 0.00 0.00 0.00 0.00 0.00 0.00 0.00 0.00 0.00 0.00 0.00 0.00 0.00 0.00 0.00 0.00 0.00 0.00 0.00 0.00 0.00 0.00 0.00 0.00 0.00 0.00 0.00 0.00 0.00 0.00
0.00 0.00 0.00 0.00 0.00 0.00 0.00 0.00 0.00 0.00 0.00 0.00 0.00 0.00 0.00 0.00 0.00 0.00 0.00 0.00 0.00 0.00 0.00 0.00 0.00 0.00 0.00 0.00 0.00 0.00 0.00 0.00 0.00 0.00 0.00 0.00 0.00 0.00 0.00 0.00 0.00 0.00 0.00
0.00 0.00 0.00 0.00 0.00 0.00 0.00 0.00 0.00 0.00 0.00 0.00 0.00 0.00 0.00 0.00 0.00 0.00 0.00 0.00 0.00 0.00 0.00 0.00 0.00 0.00 0.00 0.00 0.00 0.00 0.00 0.00 0.00 0.00 0.00 0.00 0.00 0.00 0.00 0.00 0.00 0.00 0.00
0.01 0.00 0.00 0.00 0.00 0.00 0.00 0.00 0.00 0.00 0.00 0.00 0.00 0.00 0.00 0.00 0.00 0.00 0.00 0.00 0.00 0.00 0.00 0.00 0.00 0.00 0.00 0.00 0.00 0.00 0.00 0.00 0.00 0.00 0.00 0.00 0.00 0.00 0.00 0.00 0.00 0.00 0.00
0.01 0.01 0.00 0.00 0.01 0.01 0.00 0.01 0.01 0.01 0.01 0.01 0.01 0.01 0.01 0.01 0.01 0.00 0.00 0.00 0.00 0.01 0.01 0.01 0.00 0.00 0.00 0.00 0.00 0.00 0.00 0.00 0.00 0.00 0.00 0.00 0.00 0.00 0.00 0.00 0.00 0.00 0.00
0.02 0.02 0.01 0.02 0.02 0.02 0.02 0.02 0.02 0.02 0.02 0.03 0.02 0.01 0.01 0.01 0.01 0.01 0.01 0.01 0.01 0.02 0.02 0.02 0.01 0.01 0.00 0.00 0.00 0.00 0.00 0.00 0.00 0.00 0.00 0.00 0.00 0.00 0.00 0.00 0.00 0.00 0.00
0.03 0.03 0.03 0.03 0.03 0.03 0.03 0.03 0.03 0.03 0.02 0.03 0.04 0.03 0.01 0.00 0.00 0.00 0.01 0.01 0.01 0.02 0.02 0.03 0.02 0.02 0.01 0.01 0.01 0.01 0.01 0.01 0.02 0.02 0.01 0.00 0.00 0.00 0.00 0.00 0.00 0.00 0.00
0.03 0.03 0.03 0.03 0.03 0.03 0.02 0.02 0.03 0.03 0.03 0.03 0.05 0.05 0.03 0.01 0.00 0.00 0.01 0.01 0.01 0.02 0.02 0.03 0.03 0.03 0.03 0.02 0.03 0.03 0.04 0.04 0.04 0.05 0.04 0.02 0.01 0.01 0.00 0.00 0.00 0.00 0.00
0.01 0.01 0.01 0.02 0.02 0.02 0.02 0.02 0.02 0.03 0.03 0.02 0.02 0.02 0.02 0.02 0.02 0.01 0.00 0.01 0.01 0.02 0.03 0.03 0.03 0.03 0.03 0.04 0.05 0.07 0.09 0.09 0.09 0.10 0.09 0.06 0.03 0.03 0.02 0.02 0.02 0.02 0.01
0.00 0.00 0.00 0.00 0.01 0.01 0.01 0.01 0.02 0.02 0.02 0.02 0.02 0.01 0.02 0.02 0.02 0.02 0.02 0.01 0.01 0.02 0.03 0.03 0.04 0.04 0.04 0.05 0.07 0.10 0.14 0.15 0.16 0.16 0.15 0.11 0.09 0.08 0.08 0.08 0.07 0.05 0.04
0.00 0.00 0.00 0.00 0.00 0.00 0.01 0.01 0.01 0.02 0.02 0.02 0.02 0.02 0.02 0.01 0.01 0.02 0.03 0.02 0.02 0.03 0.04 0.04 0.04 0.04 0.06 0.07 0.10 0.15 0.19 0.22 0.24 0.24 0.21 0.18 0.15 0.13 0.12 0.12 0.12 0.11 0.09
0.00 0.00 0.00 0.00 0.00 0.00 0.00 0.00 0.01 0.01 0.01 0.01 0.02 0.02 0.02 0.02 0.02 0.02 0.03 0.03 0.02 0.03 0.03 0.04 0.05 0.06 0.08 0.10 0.13 0.19 0.24 0.27 0.29 0.29 0.28 0.26 0.22 0.19 0.16 0.15 0.15 0.14 0.13
0.00 0.00 0.00 0.00 0.00 0.00 0.00 0.00 0.00 0.00 0.00 0.01 0.01 0.02 0.02 0.02 0.02 0.02 0.02 0.03 0.04 0.04 0.04 0.05 0.07 0.08 0.10 0.12 0.15 0.20 0.22 0.26 0.27 0.28 0.28 0.28 0.25 0.21 0.16 0.13 0.13 0.14 0.13
0.00 0.00 0.00 0.00 0.00 0.00 0.00 0.00 0.00 0.00 0.00 0.00 0.01 0.01 0.01 0.01 0.01 0.01 0.02 0.02 0.04 0.04 0.04 0.04 0.06 0.09 0.11 0.13 0.16 0.17 0.18 0.23 0.25 0.24 0.24 0.23 0.20 0.17 0.13 0.11 0.10 0.10 0.09
0.00 0.00 0.00 0.00 0.00 0.00 0.00 0.00 0.00 0.00 0.00 0.00 0.00 0.01 0.01 0.01 0.01 0.01 0.01 0.02 0.03 0.05 0.05 0.04 0.04 0.06 0.09 0.10 0.12 0.12 0.13 0.18 0.19 0.20 0.20 0.19 0.16 0.13 0.11 0.10 0.09 0.08 0.08
0.00 0.00 0.00 0.00 0.00 0.00 0.00 0.00 0.00 0.00 0.00 0.00 0.00 0.00 0.00 0.00 0.00 0.00 0.00 0.01 0.02 0.03 0.04 0.04 0.04 0.05 0.06 0.06 0.08 0.09 0.10 0.12 0.13 0.15 0.16 0.14 0.13 0.11 0.09 0.08 0.07 0.06 0.05
0.00 0.00 0.00 0.00 0.00 0.00 0.00 0.00 0.00 0.00 0.00 0.00 0.00 0.00 0.00 0.00 0.00 0.00 0.00 0.00 0.00 0.01 0.01 0.02 0.02 0.02 0.03 0.04 0.05 0.06 0.06 0.06 0.06 0.09 0.10 0.09 0.09 0.08 0.06 0.05 0.04 0.03 0.02
0.00 0.00 0.00 0.00 0.00 0.00 0.00 0.00 0.00 0.00 0.00 0.00 0.00 0.00 0.00 0.00 0.00 0.00 0.00 0.00 0.00 0.00 0.01 0.01 0.01 0.02 0.02 0.02 0.03 0.03 0.03 0.03 0.03 0.04 0.04 0.05 0.05 0.05 0.04 0.04 0.03 0.02 0.02
0.00 0.00 0.00 0.00 0.00 0.00 0.00 0.00 0.00 0.00 0.00 0.00 0.00 0.00 0.00 0.00 0.00 0.00 0.00 0.00 0.00 0.00 0.00 0.01 0.01 0.01 0.01 0.02 0.02 0.02 0.02 0.02 0.02 0.02 0.02 0.02 0.02 0.02 0.02 0.01 0.01 0.01 0.01
0.00 0.00 0.00 0.00 0.00 0.00 0.00 0.00 0.00 0.00 0.00 0.00 0.00 0.00 0.00 0.00 0.00 0.00 0.00 0.00 0.00 0.00 0.00 0.00 0.01 0.01 0.01 0.01 0.01 0.01 0.01 0.01 0.01 0.01 0.01 0.01 0.01 0.01 0.01 0.01 0.01 0.00 0.00
0.00 0.00 0.00 0.00 0.00 0.00 0.00 0.00 0.00 0.00 0.00 0.00 0.00 0.00 0.00 0.00 0.00 0.00 0.00 0.00 0.00 0.00 0.00 0.00 0.00 0.00 0.00 0.01 0.01 0.01 0.01 0.01 0.01 0.00 0.00 0.00 0.00 0.00 0.00 0.00 0.00 0.00 0.00
0.00 0.00 0.00 0.00 0.00 0.00 0.00 0.00 0.00 0.00 0.00 0.00 0.00 0.00 0.00 0.00 0.00 0.00 0.00 0.00 0.00 0.00 0.00 0.00 0.00 0.00 0.00 0.00 0.00 0.01 0.01 0.01 0.00 0.00 0.00 0.00 0.00 0.00 0.00 0.00 0.00 0.00 0.00
0.00 0.00 0.00 0.00 0.00 0.00 0.00 0.00 0.00 0.00 0.00 0.00 0.00 0.00 0.00 0.00 0.00 0.00 0.00 0.00 0.00 0.00 0.00 0.00 0.00 0.00 0.00 0.00 0.00 0.00 0.00 0.00 0.00 0.00 0.00 0.00 0.00 0.00 0.00 0.00 0.00 0.00 0.00
0.00 0.00 0.00 0.00 0.00 0.00 0.00 0.00 0.00 0.00 0.00 0.00 0.00 0.00 0.00 0.00 0.00 0.00 0.00 0.00 0.00 0.00 0.00 0.00 0.00 0.00 0.00 0.00 0.00 0.00 0.00 0.00 0.00 0.00 0.00 0.00 0.00 0.00 0.00 0.00 0.00 0.00 0.00
0.00 0.00 0.00 0.00 0.00 0.00 0.00 0.00 0.00 0.00 0.00 0.00 0.00 0.00 0.00 0.00 0.00 0.00 0.00 0.00 0.00 0.00 0.00 0.00 0.00 0.00 0.00 0.00 0.00 0.00 0.00 0.00 0.00 0.00 0.00 0.00 0.00 0.00 0.00 0.00 0.00 0.00 0.00
MSLP
1020.95 1021.02 1021.03 1021.02 1021.01 1021.03 1021.11 1021.24 1021.40 1021.58 1021.73 1021.83 1021.88 1021.88 1021.84 1021.79 1021.75 1021.75 1021.80 1021.89 1022.02 1022.16 1022.31 1022.45 1022.57 1022.69 1022.80 1022.91 1023.04 1023.17 1023.30 1023.42 1023.52 1023.60 1023.64 1023.66 1023.67 1023.67 1023.67 1023.68 1023.69 1023.70 1023.70
1020.67 1020.74 1020.76 1020.77 1020.78 1020.83 1020.93 1021.07 1021.24 1021.41 1021.55 1021.64 1021.67 1021.65 1021.58 1021.51 1021.45 1021.42 1021.45 1021.52 1021.65 1021.79 1021.96 1022.12 1022.27 1022.42 1022.57 1022.73 1022.89 1023.05 1023.22 1023.38 1023.52 1023.64 1023.73 1023.79 1023.83 1023.85 1023.88 1023.90 1023.92 1023.95 1023.96
1020.25 1020.34 1020.39 1020.44 1020.50 1020.59 1020.72 1020.88 1021.06 1021.22 1021.36 1021.43 1021.45 1021.41 1021.33 1021.23 1021.14 1021.09 1021.08 1021.13 1021.23 1021.36 1021.51 1021.67 1021.84 1022.02 1022.19 1022.38 1022.58 1022.78 1022.99 1023.20 1023.39 1023.56 1023.69 1023.80 1023.88 1023.94 1023.98 1024.02 1024.05 1024.09 1024.12
1019.76 1019.86 1019.96 1020.06 1020.17 1020.30 1020.47 1020.65 1020.83 1021.00 1021.12 1021.19 1021.19 1021.14 1021.05 1020.94 1020.84 1020.76 1020.73 1020.74 1020.80 1020.90 1021.02 1021.17 1021.33 1021.50 1021.70 1021.90 1022.13 1022.38 1022.63 1022.88 1023.13 1023.35 1023.54 1023.70 1023.82 1023.91 1023.98 1024.04 1024.09 1024.13 1024.17
1019.23 1019.36 1019.50 1019.64 1019.80 1019.97 1020.16 1020.36 1020.54 1020.69 1020.80 1020.86 1020.86 1020.81 1020.73 1020.63 1020.53 1020.44 1020.39 1020.38 1020.40 1020.46 1020.54 1020.66 1020.79 1020.95 1021.14 1021.36 1021.60 1021.87 1022.16 1022.46 1022.76 1023.03 1023.27 1023.48 1023.65 1023.78 1023.88 1023.96 1024.03 1024.09 1024.14
1018.74 1018.88 1019.03 1019.21 1019.39 1019.59 1019.78 1019.97 1020.14 1020.27 1020.36 1020.41 1020.42 1020.39 1020.34 1020.26 1020.18 1020.12 1020.07 1020.04 1020.04 1020.06 1020.11 1020.19 1020.29 1020.43 1020.60 1020.81 1021.05 1021.34 1021.65 1021.98 1022.31 1022.63 1022.92 1023.17 1023.39 1023.57 1023.71 1023.82 1023.90 1023.98 1024.05
1018.34 1018.46 1018.61 1018.78 1018.97 1019.15 1019.32 1019.48 1019.61 1019.72 1019.79 1019.84 1019.86 1019.86 1019.85 1019.82 1019.79 1019.76 1019.74 1019.72 1019.72 1019.73 1019.76 1019.80 1019.88 1019.98 1020.13 1020.32 1020.55 1020.83 1021.14 1021.48 1021.83 1022.18 1022.51 1022.80 1023.07 1023.29 1023.46 1023.61 1023.73 1023.83 1023.92
1018.06 1018.14 1018.26 1018.40 1018.54 1018.69 1018.81 1018.92 1019.00 1019.06 1019.11 1019.15 1019.19 1019.23 1019.26 1019.30 1019.33 1019.36 1019.39 1019.41 1019.43 1019.45 1019.47 1019.51 1019.57 1019.65 1019.77 1019.94 1020.14 1020.40 1020.69 1021.01 1021.36 1021.72 1022.07 1022.40 1022.70 1022.96 1023.18 1023.37 1023.52 1023.66 1023.78
1017.94 1017.96 1018.02 1018.09 1018.17 1018.25 1018.30 1018.34 1018.36 1018.37 1018.39 1018.42 1018.47 1018.54 1018.63 1018.72 1018.82 1018.92 1019.01 1019.08 1019.14 1019.19 1019.24 1019.29 1019.35 1019.43 1019.53 1019.66 1019.84 1020.05 1020.30 1020.60 1020.93 1021.27 1021.63 1021.98 1022.31 1022.61 1022.87 1023.10 1023.30 1023.47 1023.63
1017.99 1017.95 1017.93 1017.93 1017.92 1017.91 1017.88 1017.84 1017.79 1017.75 1017.73 1017.74 1017.79 1017.88 1018.00 1018.15 1018.30 1018.45 1018.60 1018.73 1018.85 1018.95 1019.04 1019.12 1019.20 1019.28 1019.37 1019.48 1019.62 1019.79 1019.99 1020.24 1020.53 1020.86 1021.20 1021.56 1021.91 1022.25 1022.56 1022.83 1023.08 1023.29 1023.48
1018.20 1018.10 1018.01 1017.93 1017.84 1017.74 1017.62 1017.50 1017.39 1017.29 1017.23 1017.22 1017.26 1017.35 1017.48 1017.64 1017.82 1018.01 1018.19 1018.37 1018.53 1018.69 1018.83 1018.95 1019.06 1019.16 1019.26 1019.35 1019.45 1019.58 1019.73 1019.93 1020.18 1020.47 1020.80 1021.16 1021.53 1021.90 1022.24 1022.56 1022.85 1023.10 1023.32
1018.56 1018.41 1018.26 1018.11 1017.95 1017.77 1017.59 1017.41 1017.23 1017.09 1016.99 1016.95 1016.96 1017.03 1017.14 1017.28 1017.45 1017.64 1017.84 1018.03 1018.23 1018.42 1018.61 1018.78 1018.92 1019.05 1019.15 1019.24 1019.31 1019.40 1019.51 1019.66 1019.86 1020.12 1020.43 1020.79 1021.17 1021.56 1021.94 1022.30 1022.63 1022.91 1023.17
1019.02 1018.85 1018.66 1018.47 1018.25 1018.03 1017.79 1017.57 1017.36 1017.18 1017.05 1016.97 1016.94 1016.97 1017.03 1017.13 1017.26 1017.41 1017.58 1017.77 1017.97 1018.18 1018.40 1018.60 1018.78 1018.93 1019.04 1019.12 1019.18 1019.24 1019.31 1019.42 1019.58 1019.81 1020.11 1020.47 1020.86 1021.27 1021.68 1022.07 1022.42 1022.73 1023.00
1019.53 1019.36 1019.17 1018.95 1018.71 1018.46 1018.21 1017.96 1017.74 1017.55 1017.40 1017.29 1017.22 1017.19 1017.19 1017.22 1017.27 1017.36 1017.48 1017.63 1017.81 1018.02 1018.24 1018.46 1018.66 1018.83 1018.95 1019.03 1019.08 1019.11 1019.15 1019.23 1019.37 1019.58 1019.86 1020.22 1020.61 1021.04 1021.47 1021.87 1022.24 1022.56 1022.84
1020.05 1019.89 1019.70 1019.48 1019.25 1019.00 1018.75 1018.52 1018.31 1018.13 1017.97 1017.85 1017.74 1017.66 1017.60 1017.55 1017.52 1017.53 1017.58 1017.67 1017.81 1017.99 1018.20 1018.42 1018.62 1018.79 1018.92 1018.99 1019.03 1019.04 1019.06 1019.12 1019.24 1019.44 1019.72 1020.06 1020.46 1020.89 1021.32 1021.72 1022.08 1022.40 1022.66
1020.50 1020.37 1020.20 1020.00 1019.79 1019.57 1019.36 1019.16 1018.98 1018.83 1018.69 1018.57 1018.45 1018.33 1018.22 1018.10 1017.99 1017.92 1017.89 1017.92 1018.00 1018.14 1018.33 1018.53 1018.72 1018.88 1019.00 1019.06 1019.09 1019.09 1019.10 1019.14 1019.25 1019.44 1019.70 1020.04 1020.42 1020.83 1021.24 1021.62 1021.95 1022.24 1022.48
1020.86 1020.75 1020.61 1020.45 1020.27 1020.10 1019.94 1019.80 1019.67 1019.57 1019.47 1019.37 1019.26 1019.13 1018.97 1018.81 1018.65 1018.51 1018.42 1018.38 1018.41 1018.51 1018.65 1018.82 1018.99 1019.14 1019.24 1019.29 1019.30 1019.30 1019.30 1019.33 1019.43 1019.60 1019.84 1020.15 1020.51 1020.88 1021.24 1021.57 1021.85 1022.09 1022.28
1021.10 1021.02 1020.92 1020.80 1020.67 1020.55 1020.45 1020.38 1020.32 1020.28 1020.23 1020.17 1020.08 1019.96 1019.80 1019.61 1019.42 1019.24 1019.10 1019.02 1019.01 1019.06 1019.17 1019.30 1019.44 1019.56 1019.64 1019.68 1019.68 1019.67 1019.66 1019.69 1019.77 1019.92 1020.13 1020.40 1020.70 1021.00 1021.29 1021.54 1021.75 1021.92 1022.05
1021.26 1021.21 1021.14 1021.06 1020.99 1020.93 1020.90 1020.88 1020.89 1020.91 1020.92 1020.91 1020.86 1020.76 1020.62 1020.44 1020.24 1020.04 1019.88 1019.77 1019.73 1019.75 1019.82 1019.92 1020.03 1020.13 1020.19 1020.22 1020.21 1020.19 1020.17 1020.19 1020.25 1020.37 1020.54 1020.74 1020.97 1021.19 1021.38 1021.53 1021.64 1021.72 1021.78
1021.35 1021.34 1021.32 1021.29 1021.27 1021.27 1021.29 1021.33 1021.40 1021.47 1021.53 1021.57 1021.56 1021.49 1021.38 1021.21 1021.02 1020.84 1020.67 1020.55 1020.49 1020.48 1020.53 1020.60 1020.69 1020.77 1020.82 1020.84 1020.83 1020.80 1020.78 1020.79 1020.82 1020.90 1021.02 1021.15 1021.28 1021.40 1021.48 1021.52 1021.52 1021.49 1021.47
1021.45 1021.48 1021.50 1021.53 1021.56 1021.60 1021.67 1021.76 1021.86 1021.97 1022.06 1022.13 1022.15 1022.11 1022.02 1021.89 1021.72 1021.54 1021.38 1021.26 1021.19 1021.18 1021.21 1021.27 1021.34 1021.40 1021.45 1021.46 1021.46 1021.44 1021.42 1021.41 1021.43 1021.46 1021.52 1021.57 1021.61 1021.61 1021.57 1021.49 1021.38 1021.25 1021.14
1021.58 1021.67 1021.75 1021.82 1021.90 1021.98 1022.07 1022.18 1022.29 1022.41 1022.52 1022.59 1022.63 1022.61 1022.54 1022.42 1022.27 1022.11 1021.97 1021.85 1021.78 1021.76 1021.78 1021.82 1021.89 1021.95 1021.99 1022.02 1022.02 1022.01 1022.00 1021.99 1021.98 1021.99 1021.98 1021.96 1021.90 1021.80 1021.66 1021.46 1021.24 1021.02 1020.83
1021.79 1021.94 1022.07 1022.19 1022.30 1022.40 1022.50 1022.60 1022.71 1022.81 1022.90 1022.96 1022.99 1022.97 1022.90 1022.80 1022.66 1022.52 1022.38 1022.27 1022.20 1022.17 1022.19 1022.23 1022.29 1022.36 1022.41 1022.45 1022.47 1022.48 1022.47 1022.46 1022.45 1022.42 1022.37 1022.29 1022.15 1021.97 1021.73 1021.44 1021.14 1020.84 1020.58
1022.08 1022.29 1022.46 1022.61 1022.73 1022.83 1022.92 1023.00 1023.07 1023.13 1023.19 1023.22 1023.23 1023.20 1023.13 1023.03 1022.90 1022.76 1022.63 1022.53 1022.46 1022.43 1022.44 1022.48 1022.54 1022.61 1022.68 1022.73 1022.77 1022.80 1022.81 1022.80 1022.78 1022.74 1022.66 1022.53 1022.34 1022.10 1021.80 1021.45 1021.08 1020.73 1020.42
1022.41 1022.67 1022.88 1023.04 1023.15 1023.23 1023.28 1023.32 1023.34 1023.36 1023.37 1023.37 1023.35 1023.30 1023.23 1023.13 1023.01 1022.88 1022.76 1022.66 1022.59 1022.56 1022.57 1022.61 1022.67 1022.74 1022.82 1022.88 1022.94 1022.98 1023.00 1023.00 1022.98 1022.93 1022.83 1022.68 1022.47 1022.20 1021.87 1021.49 1021.09 1020.71 1020.37
1022.75 1023.02 1023.24 1023.39 1023.48 1023.52 1023.52 1023.51 1023.48 1023.45 1023.43 1023.40 1023.36 1023.31 1023.24 1023.14 1023.04 1022.92 1022.82 1022.73 1022.66 1022.63 1022.64 1022.67 1022.73 1022.81 1022.88 1022.95 1023.01 1023.05 1023.08 1023.09 1023.06 1023.01 1022.91 1022.75 1022.54 1022.26 1021.93 1021.55 1021.15 1020.76 1020.40
Thickness
5690 5689 5687 5685 5684 5682 5681 5678 5676 5674 5672 5669 5667 5664 5662 5660 5658 5655 5652 5649 5646 5643 5641 5638 5635 5632 5629 5626 5624 5621 5619 5617 5616 5614 5612 5611 5610 5610 5609 5608 5608 5608 5608
5688 5686 5684 5683 5681 5680 5678 5676 5673 5671 5668 5666 5663 5661 5659 5657 5654 5652 5649 5646 5642 5639 5636 5633 5630 5627 5624 5621 5618 5615 5613 5611 5609 5607 5606 5605 5603 5603 5602 5601 5600 5600 5601
5685 5684 5682 5680 5679 5677 5675 5672 5670 5667 5665 5662 5660 5658 5656 5654 5652 5649 5646 5642 5638 5635 5631 5628 5625 5622 5619 5616 5613 5610 5607 5604 5602 5601 5599 5598 5596 5595 5595 5594 5594 5593 5593
5684 5682 5680 5678 5677 5675 5672 5669 5666 5663 5661 5659 5657 5655 5654 5651 5649 5646 5642 5638 5634 5631 5627 5623 5620 5617 5614 5611 5608 5605 5602 5598 5596 5593 5592 5590 5589 5588 5587 5587 5586 5586 5586
5682 5680 5679 5677 5675 5672 5669 5666 5664 5660 5658 5656 5654 5653 5650 5648 5646 5643 5639 5635 5632 5628 5624 5620 5616 5613 5609 5606 5603 5600 5597 5593 5589 5586 5584 5582 5581 5580 5579 5579 5579 5579 5579
5679 5678 5677 5675 5672 5669 5666 5664 5661 5658 5656 5654 5651 5649 5647 5645 5642 5638 5635 5632 5628 5624 5620 5615 5611 5607 5604 5600 5597 5594 5591 5588 5584 5580 5577 5575 5573 5571 5571 5571 5570 5571 5571
5675 5674 5674 5672 5669 5666 5665 5662 5658 5655 5652 5648 5643 5643 5643 5640 5637 5635 5631 5627 5624 5619 5614 5610 5605 5601 5597 5594 5591 5587 5584 5581 5577 5573 5570 5567 5564 5563 5562 5561 5561 5562 5562
5671 5670 5670 5668 5666 5664 5661 5659 5655 5651 5649 5643 5638 5634 5635 5635 5633 5631 5626 5621 5618 5612 5608 5603 5598 5593 5590 5586 5584 5580 5576 5573 5569 5565 5562 5559 5556 5554 5553 5552 5552 5552 5553
5665 5665 5664 5664 5662 5660 5658 5655 5651 5647 5643 5639 5633 5629 5626 5628 5627 5625 5619 5615 5610 5605 5601 5596 5591 5586 5581 5577 5574 5571 5567 5563 5560 5557 5553 5550 5547 5545 5544 5543 5543 5543 5544
5658 5658 5657 5657 5656 5654 5652 5650 5647 5643 5638 5635 5628 5624 5621 5620 5616 5617 5613 5607 5602 5597 5593 5588 5582 5577 5572 5567 5563 5560 5556 5552 5549 5546 5543 5540 5538 5535 5534 5533 5533 5533 5534
5649 5649 5649 5649 5648 5647 5645 5643 5640 5636 5633 5630 5625 5619 5613 5609 5605 5603 5605 5601 5593 5589 5584 5579 5574 5568 5563 5558 5553 5549 5543 5539 5537 5534 5532 5529 5526 5524 5522 5522 5522 5523 5523
5639 5639 5640 5639 5639 5638 5637 5635 5632 5629 5626 5623 5619 5614 5609 5604 5599 5595 5595 5593 5587 5581 5574 5569 5563 5558 5553 5548 5542 5537 5532 5527 5523 5521 5519 5516 5514 5513 5511 5510 5511 5511 5511
5627 5628 5628 5628 5628 5627 5627 5625 5623 5621 5618 5615 5612 5608 5604 5600 5595 5590 5587 5585 5579 5572 5564 5558 5552 5546 5541 5535 5530 5524 5519 5514 5510 5508 5506 5504 5501 5500 5499 5499 5499 5499 5499
5615 5616 5616 5616 5616 5616 5616 5615 5613 5611 5608 5606 5603 5599 5595 5591 5587 5582 5578 5574 5570 5563 5554 5548 5541 5534 5528 5522 5516 5511 5506 5501 5498 5495 5493 5492 5489 5487 5487 5487 5488 5488 5488
5603 5604 5604 5604 5603 5603 5603 5602 5600 5598 5596 5593 5590 5587 5584 5579 5575 5571 5567 5563 5559 5557 5551 5539 5529 5522 5515 5509 5503 5498 5494 5489 5487 5484 5481 5479 5477 5476 5476 5476 5477 5477 5478
5590 5591 5591 5590 5590 5590 5589 5588 5587 5585 5582 5579 5576 5573 5569 5565 5561 5557 5554 5550 5547 5544 5540 5527 5517 5509 5504 5498 5492 5487 5483 5479 5477 5474 5471 5469 5467 5466 5465 5466 5467 5467 5467
5577 5577 5577 5577 5576 5575 5575 5574 5572 5570 5568 5564 5561 5558 5554 5550 5547 5543 5540 5536 5532 5529 5526 5515 5505 5499 5494 5488 5483 5478 5474 5470 5466 5464 5462 5460 5459 5457 5456 5457 5458 5458 5458
5564 5564 5564 5563 5562 5561 5560 5559 5557 5555 5552 5549 5545 5543 5539 5536 5532 5529 5525 5521 5517 5514 5511 5505 5496 5489 5484 5479 5474 5470 5465 5461 5457 5455 5454 5452 5451 5450 5449 5449 5448 5449 5449
5551 5551 5551 5550 5548 5547 5546 5544 5543 5540 5537 5534 5531 5529 5525 5522 5518 5514 5511 5508 5504 5502 5498 5493 5485 5479 5474 5470 5466 5461 5457 5452 5450 5447 5445 5444 5443 5442 5441 5440 5439 5439 5439
5539 5538 5538 5537 5535 5534 5533 5531 5529 5526 5523 5521 5518 5515 5512 5509 5505 5502 5499 5495 5492 5488 5485 5480 5475 5470 5465 5461 5457 5452 5448 5444 5441 5439 5437 5436 5434 5433 5432 5431 5430 5430 5430
5527 5527 5526 5525 5524 5523 5521 5518 5516 5514 5511 5508 5505 5502 5500 5498 5496 5492 5488 5483 5480 5476 5473 5469 5465 5460 5455 5451 5447 5443 5438 5434 5432 5429 5427 5426 5424 5423 5422 5421 5421 5420 5419
5515 5515 5514 5514 5513 5512 5510 5507 5504 5501 5498 5495 5492 5489 5487 5484 5482 5481 5478 5474 5471 5467 5462 5457 5452 5448 5443 5439 5435 5432 5428 5424 5422 5419 5416 5416 5415 5414 5414 5412 5411 5410 5409
5504 5503 5502 5501 5501 5500 5498 5495 5492 5488 5485 5482 5479 5477 5475 5472 5469 5466 5464 5462 5459 5457 5453 5447 5441 5436 5432 5429 5425 5421 5417 5413 5410 5409 5406 5405 5404 5404 5404 5402 5400 5399 5398
5493 5491 5490 5490 5489 5489 5487 5484 5481 5477 5474 5471 5469 5466 5463 5461 5460 5456 5453 5450 5446 5443 5440 5436 5432 5427 5424 5420 5416 5412 5407 5403 5400 5399 5396 5392 5392 5391 5392 5391 5389 5388 5386
5482 5481 5480 5478 5478 5477 5477 5474 5471 5467 5464 5462 5460 5457 5455 5452 5452 5449 5444 5439 5436 5432 5430 5426 5423 5419 5415 5412 5408 5402 5396 5391 5387 5387 5384 5379 5378 5377 5378 5377 5375 5373 5371
5473 5472 5470 5469 5468 5467 5468 5467 5463 5459 5456 5454 5451 5448 5447 5445 5444 5440 5434 5430 5426 5422 5419 5415 5412 5408 5404 5401 5397 5392 5386 5377 5372 5370 5370 5365 5361 5358 5358 5360 5358 5356 5353